Starlink 35153

operational
NORAD ID: 65625 Int'l Des: 2025-210 Owner: SPXS Country: US Constellation: starlink
NOTLE

关于 Starlink 35153

正在加载描述...

实时位置

正在加载3D地球...

即将过境

高度历史

Altitude vs Time

uPlot chart will show altitude changes over time

两行轨道根数

1 65625U 25210D 25340.53667174 .00055946 00000-0 18864-2 0 9995
2 65625 53.1582 19.4345 0001340 89.8402 270.2752 15.30208028 13395
Epoch: Dec 6, 2025 • Age: 24 hours

当前状态

高度 476.7 km
速度 7.63 km/s
星下点 34.55°N, 107.34°W
发射日期 Sep 18, 2025
运行时间 0.2 years
类型 internet

技术详情

分类 Payload
质量 575.00 kg
干质量 530.00 kg
总质量 575.00 kg
长度 0.30 m
直径 4.10 m
跨度 29.00 m
形状 Box + pan
制造商 SPXS
平台类型 Starlink V2MO
阶段状态 In Orbit
所有者/国家 SPXS/US

大型星座

Loading constellations...